"Timestamp","TZ","WindDir_Mean (deg)","WindSpd_Mean (km/h)","WindSpd_Min (km/h)","WindSpd_Max (km/h)","Temp_Mean (deg)","RH_Mean (%)","MSLP_Mean (hPa)","Rain_Acc (mm)","Rain_Intensity (mm/h)","Hail_Acc (hits/cm2)","Hail_Intensity (hits/cm2hr)","Solar_Mean (W/m2)"
2022/03/07 00:00:00.003,n,140,5.4,5.04,5.76,22.4,84.2,1006.22,0,0,0,0,0.037422
2022/03/07 00:01:00.001,n,139,2.16,1.8,3.24,22.4,84.3,1006.12,0,0,0,0,0.039139
2022/03/07 00:02:00.000,n,158,4.32,3.96,4.68,22.4,84.5,1006.12,0,0,0,0,0.036545
2022/03/07 00:03:00.000,n,173,3.6,3.24,3.96,22.4,84.6,1006.12,0,0,0,0,0.040894
2022/03/07 00:04:00.000,n,141,3.24,2.88,3.24,22.4,84.6,1006.12,0,0,0,0,0.040894
2022/03/07 00:05:00.006,n,76,3.96,3.24,5.04,22.4,84.8,1006.12,0,0,0,0,0.035667
2022/03/07 00:06:00.004,n,50,2.52,1.44,3.6,22.4,85.1,1006.12,0,0,0,0,0.035667
2022/03/07 00:07:00.001,n,89,2.88,2.88,3.24,22.5,85.1,1006.12,0,0,0,0,0.037422
2022/03/07 00:08:00.000,n,107,3.96,3.6,4.32,22.5,85.1,1006.12,0,0,0,0,0.040894
2022/03/07 00:09:00.012,n,81,3.6,3.24,3.96,22.5,85.2,1006.12,0,0,0,0,0.0383
2022/03/07 00:10:00.000,n,143,3.24,2.88,3.6,22.4,85.2,1006.12,0,0,0,0,0.039139
2022/03/07 00:11:00.000,n,154,3.24,2.88,3.6,22.4,85.3,1006.12,0,0,0,0,0.036545
2022/03/07 00:12:00.005,n,128,3.96,3.96,5.04,22.4,85.3,1006.02,0,0,0,0,0.036545
2022/03/07 00:13:00.002,n,104,1.08,0.36,1.44,22.4,85.3,1006.02,0,0,0,0,0.040016
2022/03/07 00:14:00.000,n,131,3.96,3.6,4.32,22.4,85.3,1006.02,0,0,0,0,0.039139
2022/03/07 00:15:00.000,n,125,5.4,4.32,6.12,22.3,85.3,1006.02,0,0,0,0,0.040016
2022/03/07 00:16:00.000,n,149,5.04,4.32,5.04,22.3,85.5,1006.02,0,0,0,0,0.036545
2022/03/07 00:17:00.010,n,154,2.52,2.16,2.88,22.3,85.5,1006.02,0,0,0,0,0.037422
2022/03/07 00:18:00.007,n,201,1.8,1.44,2.16,22.3,85.6,1006.02,0,0,0,0,0.037422
2022/03/07 00:19:00.000,n,143,3.6,3.24,3.96,22.3,85.4,1006.02,0,0,0,0,0.040016
2022/03/07 00:20:00.003,n,162,2.88,2.88,2.88,22.3,85.5,1006.02,0,0,0,0,0.0383
2022/03/07 00:21:00.001,n,180,3.96,3.6,4.32,22.3,85.4,1006.02,0,0,0,0,0.039139
2022/03/07 00:22:00.002,n,203,2.16,1.8,2.88,22.3,85.3,1006.02,0,0,0,0,0.040894
2022/03/07 00:23:00.000,n,197,2.52,2.16,2.52,22.2,85.3,1006.02,0,0,0,0,0.037422
2022/03/07 00:24:00.000,n,218,1.44,1.08,1.44,22.2,85.3,1006.02,0,0,0,0,0.041733
2022/03/07 00:25:00.010,n,252,1.44,0.72,1.8,22.2,85.4,1006.02,0,0,0,0,0.042648
2022/03/07 00:26:00.008,n,200,1.8,0.36,2.16,22.3,85.6,1006.02,0,0,0,0,0.045242
2022/03/07 00:27:00.005,n,286,1.44,0.72,1.8,22.3,85.6,1006.02,0,0,0,0,0.042648
2022/03/07 00:28:00.000,n,293,0.72,0.36,0.72,22.3,85.5,1006.02,0,0,0,0,0.045242
2022/03/07 00:29:00.000,n,312,0.36,0.36,0.72,22.3,85.4,1006.02,0,0,0,0,0.044365
2022/03/07 00:30:00.000,n,249,2.16,1.8,2.52,22.3,85.3,1006.12,0,0,0,0,0.040016
2022/03/07 00:31:00.000,n,253,3.24,2.88,3.6,22.3,85.2,1006.02,0,0,0,0,0.040016
2022/03/07 00:32:00.009,n,222,1.08,0.36,1.8,22.3,85.2,1006.02,0,0,0,0,0.044365
2022/03/07 00:33:00.006,n,235,2.52,1.8,2.88,22.3,85.3,1005.92,0,0,0,0,0.040894
2022/03/07 00:34:00.011,n,241,4.32,4.32,4.68,22.3,85.1,1005.92,0,0,0,0,0.040016
2022/03/07 00:35:00.008,n,241,4.32,3.6,4.68,22.3,85.1,1005.82,0,0,0,0,0.040894
2022/03/07 00:36:00.007,n,246,3.96,3.96,4.32,22.3,85.2,1005.82,0,0,0,0,0.041733
2022/03/07 00:37:00.000,n,231,2.88,2.52,2.88,22.3,85.2,1005.82,0,0,0,0,0.040016
2022/03/07 00:38:00.000,n,155,1.44,1.08,1.44,22.3,85.2,1005.82,0,0,0,0,0.040016
2022/03/07 00:39:00.000,n,213,2.88,2.52,3.24,22.3,85.3,1005.72,0,0,0,0,0.037422
2022/03/07 00:40:00.004,n,164,2.88,2.88,2.88,22.3,85.2,1005.72,0,0,0,0,0.040016
2022/03/07 00:41:00.000,n,178,3.6,3.24,4.32,22.2,84.3,1005.72,0,0,0,0,0.039139
2022/03/07 00:42:00.000,n,164,3.96,3.6,5.04,22.2,84.4,1005.62,0,0,0,0,0.037422
2022/03/07 00:43:00.010,n,164,7.56,5.76,8.28,22.1,83.5,1005.62,0,0,0,0,0.037422
2022/03/07 00:44:00.007,n,173,5.76,5.04,6.12,22,83.2,1005.62,0,0,0,0,0.042648
2022/03/07 00:45:00.015,n,155,4.68,4.32,5.04,22.1,83.4,1005.62,0,0,0,0,0.041733
2022/03/07 00:46:00.000,n,142,4.68,3.24,5.4,22.1,83.4,1005.62,0,0,0,0,0.042648
2022/03/07 00:47:00.000,n,181,5.4,4.32,6.48,22.1,83.3,1005.52,0,0,0,0,0.037422
2022/03/07 00:48:00.000,n,171,6.12,5.4,6.84,22.2,82.8,1005.52,0,0,0,0,0.042648
2022/03/07 00:49:00.004,n,228,4.32,3.96,5.04,22.1,81,1005.52,0,0,0,0,0.044365
2022/03/07 00:50:00.001,n,196,4.32,3.96,5.04,22.1,82.5,1005.52,0,0,0,0,0.042648
2022/03/07 00:51:00.000,n,177,4.32,3.24,4.68,22.1,81.4,1005.52,0,0,0,0,0.043526
2022/03/07 00:52:00.000,n,197,1.08,0.36,1.8,22.1,81.5,1005.52,0,0,0,0,0.042648
2022/03/07 00:53:00.011,n,277,3.24,3.24,3.6,22.1,82.1,1005.52,0,0,0,0,0.043526
2022/03/07 00:54:00.009,n,234,2.16,0.72,3.6,22.2,81.7,1005.52,0,0,0,0,0.04612
2022/03/07 00:55:00.000,n,269,1.44,0.72,1.8,22.2,81.8,1005.52,0,0,0,0,0.042648
2022/03/07 00:56:00.000,n,250,3.24,2.52,4.32,22.1,80.9,1005.52,0,0,0,0,0.041733
2022/03/07 00:57:00.002,n,235,2.16,1.8,2.16,22.1,80.9,1005.52,0,0,0,0,0.042648
2022/03/07 00:58:00.001,n,118,0.72,0.36,1.08,22.1,80.2,1005.52,0,0,0,0,0.043526
2022/03/07 00:59:00.000,n,202,1.8,1.44,1.8,22,80.4,1005.52,0,0,0,0,0.043526
2022/03/07 01:00:00.000,n,172,2.52,2.16,2.88,22,80.1,1005.42,0,0,0,0,0.041733
2022/03/07 01:01:00.009,n,200,4.32,3.6,5.04,22,79.8,1005.42,0,0,0,0,0.041733
2022/03/07 01:02:00.000,n,260,2.16,1.8,2.88,22,80.4,1005.52,0,0,0,0,0.037422
2022/03/07 01:03:00.014,n,229,1.8,1.44,2.16,22.1,80.3,1005.52,0,0,0,0,0.036545
2022/03/07 01:04:00.000,n,223,1.8,1.8,2.16,22.1,80.3,1005.52,0,0,0,0,0.040894
2022/03/07 01:05:00.000,n,131,2.16,1.44,2.88,22.1,80,1005.52,0,0,0,0,0.040894
2022/03/07 01:06:00.000,n,177,0.72,0.36,1.08,22.1,79.6,1005.52,0,0,0,0,0.040894
2022/03/07 01:07:00.003,n,212,3.24,3.24,3.6,22.1,79.5,1005.52,0,0,0,0,0.040016
2022/03/07 01:08:00.000,n,162,2.16,1.8,2.88,22,79.5,1005.52,0,0,0,0,0.040894
2022/03/07 01:09:00.000,n,195,1.8,1.8,2.16,22,79.7,1005.62,0,0,0,0,0.037422
2022/03/07 01:10:00.011,n,224,3.6,2.52,3.96,22,79.6,1005.62,0,0,0,0,0.03479
2022/03/07 01:11:00.008,n,266,2.88,2.52,3.24,22,79.5,1005.52,0,0,0,0,0.0383
2022/03/07 01:12:00.006,n,198,2.88,1.8,3.96,22,79.3,1005.52,0,0,0,0,0.036545
2022/03/07 01:13:00.000,n,219,1.44,1.08,2.16,22,79.3,1005.52,0,0,0,0,0.039139
2022/03/07 01:14:00.000,n,166,2.88,2.16,3.6,22,79.3,1005.52,0,0,0,0,0.0383
2022/03/07 01:15:00.000,n,257,2.52,2.16,3.24,22,79.1,1005.52,0,0,0,0,0.035667
2022/03/07 01:16:00.000,n,221,1.08,0.36,1.44,22,79.3,1005.52,0,0,0,0,0.032196
2022/03/07 01:17:00.008,n,341,2.16,0.72,2.88,22,79.3,1005.52,0,0,0,0,0.040894
2022/03/07 01:18:00.006,n,270,2.88,2.16,2.88,22,79.5,1005.52,0,0,0,0,0.03479
2022/03/07 01:19:00.003,n,261,2.88,2.52,3.24,22,78.7,1005.52,0,0,0,0,0.035667
2022/03/07 01:20:00.000,n,267,2.52,2.16,2.52,22,78.8,1005.52,0,0,0,0,0.033073
2022/03/07 01:21:00.014,n,272,4.68,2.88,4.68,22,78.7,1005.62,0,0,0,0,0.035667
2022/03/07 01:22:00.000,n,264,3.96,3.6,4.68,21.9,78.3,1005.62,0,0,0,0,0.036545
2022/03/07 01:23:00.000,n,241,4.32,2.52,6.12,21.9,78.2,1005.62,0,0,0,0,0.039139
2022/03/07 01:24:00.000,n,261,3.96,3.6,3.96,21.9,78.4,1005.62,0,0,0,0,0.035667
2022/03/07 01:25:00.004,n,257,4.32,3.96,4.68,21.9,78,1005.62,0,0,0,0,0.036545
2022/03/07 01:26:00.001,n,245,2.16,1.08,3.24,21.9,78.2,1005.62,0,0,0,0,0.035667
2022/03/07 01:27:00.000,n,277,5.76,5.04,6.48,22,78.7,1005.62,0,0,0,0,0.037422
2022/03/07 01:28:00.012,n,272,1.8,1.08,2.88,22,78.5,1005.52,0,0,0,0,0.0383
2022/03/07 01:29:00.009,n,236,1.08,0.72,1.44,22,78.3,1005.52,0,0,0,0,0.037422
2022/03/07 01:30:00.007,n,231,0.36,0,0.72,22,78.6,1005.52,0,0,0,0,0.03479
2022/03/07 01:31:00.000,n,52,1.44,0.72,2.16,22,79.3,1005.52,0,0,0,0,0.036545
2022/03/07 01:32:00.000,n,57,1.8,1.44,2.52,22,79.4,1005.52,0,0,0,0,0.037422
2022/03/07 01:33:00.000,n,356,1.8,1.08,2.16,22.1,80,1005.52,0,0,0,0,0.036545
2022/03/07 01:34:00.000,n,17,1.44,1.08,1.8,22.1,80.1,1005.52,0,0,0,0,0.037422
2022/03/07 01:35:00.000,n,346,1.8,1.44,1.8,22.1,80.3,1005.52,0,0,0,0,0.035667
2022/03/07 01:36:00.007,n,267,2.88,2.88,3.24,22.1,80.3,1005.52,0,0,0,0,0.0383
2022/03/07 01:37:00.005,n,250,3.24,2.52,3.6,22.1,80.3,1005.42,0,0,0,0,0.03479
2022/03/07 01:38:00.005,n,258,5.04,4.68,5.04,22,79.8,1005.42,0,0,0,0,0.03479
2022/03/07 01:39:00.003,n,268,3.6,2.52,3.96,21.9,79.4,1005.42,0,0,0,0,0.03479
2022/03/07 01:40:00.002,n,268,4.32,3.6,5.4,21.9,79,1005.42,0,0,0,0,0.035667
2022/03/07 01:41:00.000,n,279,4.68,4.32,5.04,21.8,78.5,1005.42,0,0,0,0,0.036545
2022/03/07 01:42:00.000,n,269,3.96,3.6,4.32,21.7,77.8,1005.32,0,0,0,0,0.0383
2022/03/07 01:43:00.000,n,256,5.4,4.68,6.48,21.6,77.1,1005.32,0,0,0,0,0.035667
2022/03/07 01:44:00.008,n,256,7.56,6.84,7.92,21.5,76.4,1005.32,0,0,0,0,0.035667
2022/03/07 01:45:00.006,n,237,2.16,2.16,2.52,21.5,76.4,1005.22,0,0,0,0,0.036545
2022/03/07 01:46:00.003,n,166,1.8,1.44,2.16,21.5,76.6,1005.22,0,0,0,0,0.0383
2022/03/07 01:47:00.001,n,248,1.44,1.08,1.8,21.6,76.8,1005.22,0,0,0,0,0.035667
2022/03/07 01:48:00.015,n,297,2.16,1.44,2.52,21.6,76.4,1005.32,0,0,0,0,0.033073
2022/03/07 01:49:00.000,n,226,3.6,2.52,4.32,21.6,76.1,1005.32,0,0,0,0,0.033951
2022/03/07 01:50:00.000,n,162,1.08,0.72,1.08,21.5,75.4,1005.32,0,0,0,0,0.033073
2022/03/07 01:51:00.000,n,264,2.88,2.52,3.24,21.5,76.1,1005.22,0,0,0,0,0.033951
2022/03/07 01:52:00.000,n,247,2.52,2.16,3.24,21.5,75.7,1005.22,0,0,0,0,0.032196
2022/03/07 01:53:00.006,n,248,4.32,3.96,4.32,21.5,75,1005.22,0,0,0,0,0.032196
2022/03/07 01:54:00.002,n,264,2.88,2.52,3.24,21.5,74.9,1005.22,0,0,0,0,0.030441
2022/03/07 01:55:00.008,n,255,3.24,2.88,3.6,21.5,75.2,1005.22,0,0,0,0,0.028725
2022/03/07 01:56:00.004,n,252,3.6,3.24,3.6,21.6,75.2,1005.22,0,0,0,0,0.029564
2022/03/07 01:57:00.003,n,260,3.96,3.6,3.96,21.6,75.3,1005.12,0,0,0,0,0.032196
2022/03/07 01:58:00.001,n,259,2.88,2.52,3.24,21.6,75.1,1005.12,0,0,0,0,0.028725
2022/03/07 01:59:00.000,n,245,2.52,2.16,2.52,21.6,75.3,1005.12,0,0,0,0,0.031357
2022/03/07 02:00:00.000,n,270,1.8,1.44,2.16,21.6,75.6,1005.02,0,0,0,0,0.029564
2022/03/07 02:01:00.006,n,219,1.8,1.8,2.52,21.6,75.7,1005.02,0,0,0,0,0.033073
2022/03/07 02:02:00.004,n,196,1.08,0.72,1.44,21.6,75.5,1005.02,0,0,0,0,0.027847
2022/03/07 02:03:00.001,n,223,1.08,0.72,1.44,21.6,75.4,1005.02,0,0,0,0,0.032196
2022/03/07 02:04:00.000,n,182,0.72,0.72,0.72,21.6,75.7,1005.02,0,0,0,0,0.028725
2022/03/07 02:05:00.011,n,252,1.44,1.08,2.16,21.6,75.8,1005.02,0,0,0,0,0.027847
2022/03/07 02:06:00.008,n,248,2.16,2.16,2.52,21.6,75.8,1005.02,0,0,0,0,0.028725
2022/03/07 02:07:00.000,n,241,2.88,2.52,3.24,21.6,76.1,1005.12,0,0,0,0,0.030441
2022/03/07 02:08:00.000,n,249,2.52,2.52,3.24,21.6,76.1,1005.12,0,0,0,0,0.029564
2022/03/07 02:09:00.000,n,252,1.8,1.44,2.16,21.6,76.3,1005.12,0,0,0,0,0.028725
2022/03/07 02:10:00.007,n,257,2.52,2.16,2.52,21.6,76.7,1005.12,0,0,0,0,0.026131
2022/03/07 02:11:00.004,n,256,3.24,2.88,3.96,21.6,76.8,1005.02,0,0,0,0,0.024338
2022/03/07 02:12:00.003,n,258,2.52,2.16,2.88,21.6,76.8,1005.02,0,0,0,0,0.023499
2022/03/07 02:13:00.000,n,270,2.88,2.16,3.6,21.5,77,1005.02,0,0,0,0,0.026131
2022/03/07 02:14:00.013,n,276,3.96,3.6,4.32,21.5,77.3,1005.02,0,0,0,0,0.025215
2022/03/07 02:15:00.010,n,265,3.96,1.44,4.68,21.5,76.2,1005.02,0,0,0,0,0.022621
2022/03/07 02:16:00.000,n,264,6.12,5.04,6.84,21.4,75.2,1005.02,0,0,0,0,0.023499
2022/03/07 02:17:00.000,n,272,4.32,3.24,5.04,21.3,74.6,1005.02,0,0,0,0,0.023499
2022/03/07 02:18:00.004,n,271,5.4,4.32,6.48,21.3,74.7,1004.92,0,0,0,0,0.024338
2022/03/07 02:19:00.002,n,268,5.4,5.04,6.12,21.3,74.9,1004.92,0,0,0,0,0.027847
2022/03/07 02:20:00.003,n,247,3.6,2.52,3.96,21.3,75.1,1004.92,0,0,0,0,0.021744
2022/03/07 02:21:00.001,n,287,4.68,3.96,5.4,21.3,75,1004.82,0,0,0,0,0.022621
2022/03/07 02:22:00.000,n,276,5.4,4.32,6.12,21.3,74.9,1004.82,0,0,0,0,0.01915
2022/03/07 02:23:00.012,n,282,4.68,3.96,5.4,21.3,75.1,1004.82,0,0,0,0,0.021744
2022/03/07 02:24:00.010,n,275,2.52,1.8,2.52,21.3,75,1004.82,0,0,0,0,0.01915
2022/03/07 02:25:00.000,n,294,1.8,1.44,2.16,21.3,74.9,1004.82,0,0,0,0,0.020905
2022/03/07 02:26:00.000,n,236,2.16,1.8,2.52,21.3,75,1004.82,0,0,0,0,0.018272
2022/03/07 02:27:00.002,n,248,2.52,2.16,2.88,21.2,75.1,1004.82,0,0,0,0,0.01915
2022/03/07 02:28:00.000,n,261,3.24,2.88,3.6,21.2,75.2,1004.82,0,0,0,0,0.023499
2022/03/07 02:29:00.000,n,262,2.52,2.16,2.52,21.2,75.3,1004.82,0,0,0,0,0.019989
2022/03/07 02:30:00.000,n,255,2.16,1.8,2.52,21.2,75.5,1004.82,0,0,0,0,0.021744
2022/03/07 02:31:00.006,n,233,2.52,2.16,2.88,21.2,75.8,1004.82,0,0,0,0,0.029564
2022/03/07 02:32:00.006,n,182,1.44,0.72,1.44,21.2,75.9,1004.82,0,0,0,0,0.028687
2022/03/07 02:33:00.003,n,215,0.36,0,1.08,21.2,75.9,1004.72,0,0,0,0,0.026054
2022/03/07 02:34:00.000,n,173,2.16,1.44,2.52,21.1,76.1,1004.72,0,0,0,0,0.031281
2022/03/07 02:35:00.000,n,219,2.88,2.88,3.24,21.1,76,1004.72,0,0,0,0,0.029564
2022/03/07 02:36:00.003,n,180,2.88,2.52,3.24,21.1,76.1,1004.72,0,0,0,0,0.026054
2022/03/07 02:37:00.000,n,189,2.88,2.52,2.88,21.1,76,1004.72,0,0,0,0,0.025215
2022/03/07 02:38:00.000,n,169,2.52,2.16,2.52,21.1,76.2,1004.82,0,0,0,0,0.025215
2022/03/07 02:39:00.000,n,120,1.8,1.44,2.16,21.2,76.3,1004.82,0,0,0,0,0.021744
2022/03/07 02:40:00.005,n,179,1.08,0.72,1.08,21.2,76.8,1004.82,0,0,0,0,0.02697
2022/03/07 02:41:00.002,n,105,2.16,1.8,2.52,21.2,76.9,1004.82,0,0,0,0,0.025215
2022/03/07 02:42:00.000,n,159,2.88,2.16,3.6,21.2,77.1,1004.82,0,0,0,0,0.024338
2022/03/07 02:43:00.000,n,160,3.6,3.24,3.96,21.2,77.2,1004.82,0,0,0,0,0.024338
2022/03/07 02:44:00.000,n,170,4.68,4.32,4.68,21.2,77.5,1004.82,0,0,0,0,0.020866
2022/03/07 02:45:00.000,n,154,5.04,4.68,5.4,21.2,77.6,1004.82,0,0,0,0,0.02346
2022/03/07 02:46:00.005,n,197,5.76,5.04,6.48,21.2,77.7,1004.82,0,0,0,0,0.022621
2022/03/07 02:47:00.003,n,191,2.16,1.8,2.52,21.2,77.8,1004.82,0,0,0,0,0.022621
2022/03/07 02:48:00.000,n,241,2.52,2.16,2.52,21.2,77.9,1004.82,0,0,0,0,0.022621
2022/03/07 02:49:00.000,n,208,4.32,3.96,4.32,21.2,77.8,1004.82,0,0,0,0,0.022621
2022/03/07 02:50:00.011,n,228,0.72,0.36,1.08,21.1,78.1,1004.82,0,0,0,0,0.019989
2022/03/07 02:51:00.009,n,255,1.8,1.44,2.16,21.1,78.1,1004.82,0,0,0,0,0.019989
2022/03/07 02:52:00.000,n,239,2.16,2.16,2.52,21.1,78.1,1004.92,0,0,0,0,0.019112
2022/03/07 02:53:00.000,n,239,1.8,1.8,2.16,21.1,78,1004.92,0,0,0,0,0.018234
2022/03/07 02:54:00.000,n,237,1.8,1.44,2.16,21.1,78.1,1004.92,0,0,0,0,0.020866
2022/03/07 02:55:00.006,n,230,1.08,0.72,1.44,21.1,78.4,1004.92,0,0,0,0,0.020866
2022/03/07 02:56:00.009,n,246,0.72,0.36,0.72,21.1,78.5,1004.92,0,0,0,0,0.019112
2022/03/07 02:57:00.007,n,165,1.8,1.08,2.16,21.1,78.7,1004.92,0,0,0,0,0.018234
2022/03/07 02:58:00.004,n,241,2.16,2.16,2.16,21.1,78.8,1004.92,0,0,0,0,0.019112
2022/03/07 02:59:00.001,n,255,2.52,2.16,3.24,21.1,78.8,1004.92,0,0,0,0,0.021744
2022/03/07 03:00:00.010,n,262,2.88,2.52,2.88,21,78.9,1004.92,0,0,0,0,0.028725
2022/03/07 03:01:00.000,n,236,3.6,2.88,4.32,21,79,1004.92,0,0,0,0,0.030441
2022/03/07 03:02:00.000,n,277,0.72,0.72,1.44,21,79.1,1004.92,0,0,0,0,0.026093
2022/03/07 03:03:00.001,n,224,2.16,1.8,2.16,21,79,1004.82,0,0,0,0,0.030441
2022/03/07 03:04:00.000,n,171,0.36,0,0.36,21,79.3,1004.92,0,0,0,0,0.029564
2022/03/07 03:05:00.000,n,296,0.72,0.36,1.08,21,79.3,1004.82,0,0,0,0,0.030441
2022/03/07 03:06:00.009,n,289,1.08,0.72,1.44,21,79.2,1004.82,0,0,0,0,0.025215
2022/03/07 03:07:00.006,n,229,1.08,0.72,1.08,21,79.3,1004.82,0,0,0,0,0.031319
2022/03/07 03:08:00.003,n,321,1.08,0.36,1.8,21,79.6,1004.82,0,0,0,0,0.02697
2022/03/07 03:09:00.000,n,297,1.08,0.36,1.44,21,79.4,1004.82,0,0,0,0,0.024376
2022/03/07 03:10:00.000,n,288,1.08,0.36,2.88,21,79.4,1004.82,0,0,0,0,0.028725
2022/03/07 03:11:00.000,n,266,1.44,1.44,1.8,21,79.2,1004.72,0,0,0,0,0.026093
2022/03/07 03:12:00.000,n,263,2.52,2.16,2.88,20.9,78.6,1004.72,0,0,0,0,0.027847
2022/03/07 03:13:00.000,n,248,1.08,0.72,1.44,20.9,78.6,1004.72,0,0,0,0,0.027847
2022/03/07 03:14:00.002,n,262,1.08,0.72,1.8,20.9,78.6,1004.72,0,0,0,0,0.026093
2022/03/07 03:15:00.007,n,263,1.44,1.08,1.8,20.9,78.6,1004.72,0,0,0,0,0.028725
2022/03/07 03:16:00.000,n,268,2.88,2.52,2.88,20.8,78.8,1004.72,0,0,0,0,0.02697
2022/03/07 03:17:00.001,n,265,3.24,3.24,3.24,20.9,79,1004.72,0,0,0,0,0.020866
2022/03/07 03:18:00.010,n,245,2.88,2.88,3.24,20.9,79.1,1004.72,0,0,0,0,0.024376
2022/03/07 03:19:00.000,n,249,2.16,1.44,2.52,20.8,78.8,1004.82,0,0,0,0,0.025215
2022/03/07 03:20:00.000,n,266,1.8,1.44,2.16,20.8,79,1004.82,0,0,0,0,0.025215
2022/03/07 03:21:00.000,n,189,0.36,0.36,1.08,20.8,79.1,1004.82,0,0,0,0,0.020866
2022/03/07 03:22:00.000,n,60,1.44,1.08,1.8,20.8,80.3,1004.82,0,0,0,0,0.022621
2022/03/07 03:23:00.005,n,59,2.52,1.8,2.88,20.9,80.7,1004.82,0,0,0,0,0.023499
2022/03/07 03:24:00.002,n,69,3.6,3.6,3.96,20.9,80.1,1004.82,0,0,0,0,0.020866
2022/03/07 03:25:00.000,n,37,1.8,1.8,2.16,20.9,80.3,1004.82,0,0,0,0,0.026093
2022/03/07 03:26:00.013,n,27,1.8,1.44,2.16,20.8,80.5,1004.72,0,0,0,0,0.023499
2022/03/07 03:27:00.008,n,343,2.88,2.52,2.88,20.8,80.5,1004.72,0,0,0,0,0.022621
2022/03/07 03:28:00.000,n,333,2.88,2.88,2.88,20.8,80.9,1004.72,0,0,0,0,0.025215
2022/03/07 03:29:00.003,n,272,3.96,1.08,5.04,20.8,80.9,1004.72,0,0,0,0,0.023499
2022/03/07 03:30:00.000,n,229,4.68,4.32,5.04,20.8,80.9,1004.72,0,0,0,0,0.023499
2022/03/07 03:31:00.000,n,244,2.16,1.8,3.24,20.7,80.7,1004.72,0,0,0,0,0.020866
2022/03/07 03:32:00.004,n,193,2.52,2.52,2.88,20.7,80.7,1004.72,0,0,0,0,0.022621
2022/03/07 03:33:00.009,n,229,2.52,1.8,2.88,20.6,80.5,1004.72,0,0,0,0,0.020866
2022/03/07 03:34:00.002,n,239,2.16,2.16,2.52,20.6,80.5,1004.62,0,0,0,0,0.021744
2022/03/07 03:35:00.008,n,276,0.72,0.72,1.08,20.5,80.6,1004.62,0,0,0,0,0.021744
2022/03/07 03:36:00.013,n,165,0.72,0.36,0.72,20.5,80.8,1004.62,0,0,0,0,0.021744
2022/03/07 03:37:00.000,n,57,1.08,0.72,1.44,20.6,81.7,1004.52,0,0,0,0,0.020866
2022/03/07 03:38:00.000,n,42,1.44,1.08,1.8,20.6,81.8,1004.52,0,0,0,0,0.022621
2022/03/07 03:39:00.002,n,79,2.16,1.08,2.52,20.7,81.7,1004.62,0,0,0,0,0.01915
2022/03/07 03:40:00.000,n,79,1.44,1.44,1.8,20.7,81.9,1004.62,0,0,0,0,0.021744
2022/03/07 03:41:00.000,n,123,0.36,0.36,0.72,20.7,81.5,1004.62,0,0,0,0,0.020866
2022/03/07 03:42:00.002,n,192,0.72,0,1.08,20.7,81.4,1004.52,0,0,0,0,0.022621
2022/03/07 03:43:00.007,n,284,2.88,2.52,3.6,20.6,81.4,1004.52,0,0,0,0,0.018272
2022/03/07 03:44:00.000,n,276,5.04,4.68,5.04,20.6,81.1,1004.42,0,0,0,0,0.017395
2022/03/07 03:45:00.004,n,265,2.52,0.36,3.6,20.6,81.7,1004.42,0,0,0,0,0.019989
2022/03/07 03:46:00.000,n,263,2.88,2.52,3.6,20.6,81.8,1004.42,0,0,0,0,0.025253
2022/03/07 03:47:00.000,n,212,0.36,0.36,0.36,20.6,81.6,1004.42,0,0,0,0,0.031319
2022/03/07 03:48:00.002,n,133,1.08,0.36,1.44,20.6,81.5,1004.42,0,0,0,0,0.027847
2022/03/07 03:49:00.000,n,248,1.8,1.44,2.16,20.5,81.5,1004.32,0,0,0,0,0.029602
2022/03/07 03:50:00.000,n,252,1.44,0.72,2.16,20.5,81.8,1004.32,0,0,0,0,0.027847
2022/03/07 03:51:00.002,n,296,2.88,2.52,3.6,20.5,81.7,1004.32,0,0,0,0,0.032196
2022/03/07 03:52:00.008,n,295,2.16,0.72,3.6,20.5,81.8,1004.32,0,0,0,0,0.02697
2022/03/07 03:53:00.000,n,59,2.16,1.44,2.52,20.5,82.1,1004.32,0,0,0,0,0.028687
2022/03/07 03:54:00.005,n,103,1.08,0.72,1.44,20.6,82.2,1004.42,0,0,0,0,0.028687
2022/03/07 03:55:00.000,n,101,1.08,0.36,1.8,20.6,82.3,1004.42,0,0,0,0,0.025253
2022/03/07 03:56:00.000,n,131,1.44,1.08,1.8,20.6,81.9,1004.42,0,0,0,0,0.029602
2022/03/07 03:57:00.000,n,150,1.08,0.72,1.44,20.6,81.9,1004.42,0,0,0,0,0.026093
2022/03/07 03:58:00.000,n,262,2.88,2.52,3.24,20.5,81.9,1004.42,0,0,0,0,0.029602
2022/03/07 03:59:00.000,n,269,5.04,4.68,5.76,20.5,81.7,1004.52,0,0,0,0,0.029602
2022/03/07 04:00:00.009,n,264,5.4,5.04,6.12,20.5,81.6,1004.52,0,0,0,0,0.025253
2022/03/07 04:01:00.000,n,237,5.4,4.32,5.76,20.4,81.7,1004.52,0,0,0,0,0.027847
2022/03/07 04:02:00.005,n,246,3.6,2.88,3.96,20.4,81.9,1004.52,0,0,0,0,0.02697
2022/03/07 04:03:00.010,n,209,3.24,2.52,3.6,20.4,82,1004.52,0,0,0,0,0.028687
2022/03/07 04:04:00.000,n,230,2.16,2.16,2.88,20.4,82.1,1004.62,0,0,0,0,0.027847
2022/03/07 04:05:00.000,n,256,2.16,1.8,2.52,20.4,82.2,1004.62,0,0,0,0,0.021744
2022/03/07 04:06:00.000,n,229,2.52,2.16,3.24,20.4,82.3,1004.52,0,0,0,0,0.025253
2022/03/07 04:07:00.000,n,250,4.68,4.32,5.04,20.4,82.2,1004.52,0,0,0,0,0.025253
2022/03/07 04:08:00.003,n,258,5.04,4.68,5.4,20.4,82.2,1004.52,0,0,0,0,0.024376
2022/03/07 04:09:00.010,n,265,2.88,2.88,3.24,20.3,82.2,1004.52,0,0,0,0,0.02697
2022/03/07 04:10:00.000,n,251,3.96,3.24,4.32,20.3,82.3,1004.52,0,0,0,0,0.024376
2022/03/07 04:11:00.013,n,244,3.96,3.24,4.68,20.3,82.4,1004.52,0,0,0,0,0.024376
2022/03/07 04:12:00.002,n,252,5.04,4.68,5.76,20.3,82.4,1004.52,0,0,0,0,0.024376
2022/03/07 04:13:00.000,n,264,3.24,2.88,3.24,20.3,82.5,1004.42,0,0,0,0,0.021744
2022/03/07 04:14:00.000,n,246,3.96,3.96,4.68,20.3,82.5,1004.52,0,0,0,0,0.021744
2022/03/07 04:15:00.002,n,266,3.6,3.6,3.96,20.3,82.5,1004.52,0,0,0,0,0.026093
2022/03/07 04:16:00.000,n,265,3.6,3.24,3.6,20.3,82.4,1004.52,0,0,0,0,0.01915
2022/03/07 04:17:00.003,n,265,4.32,3.96,4.32,20.3,82.3,1004.52,0,0,0,0,0.020027
2022/03/07 04:18:00.009,n,260,3.6,3.24,3.96,20.2,82.3,1004.52,0,0,0,0,0.018272
2022/03/07 04:19:00.000,n,264,5.04,4.68,5.04,20.2,82.3,1004.52,0,0,0,0,0.020027
2022/03/07 04:20:00.001,n,260,4.32,3.96,4.32,20.2,82.3,1004.52,0,0,0,0,0.024376
2022/03/07 04:21:00.003,n,259,4.32,3.6,4.32,20.2,82.4,1004.52,0,0,0,0,0.026093
2022/03/07 04:22:00.000,n,264,4.68,4.68,4.68,20.2,82.4,1004.62,0,0,0,0,0.026093
2022/03/07 04:23:00.000,n,272,3.6,3.24,3.96,20.2,82.4,1004.62,0,0,0,0,0.027008
2022/03/07 04:24:00.000,n,274,4.32,3.96,4.68,20.3,82.4,1004.62,0,0,0,0,0.028725
2022/03/07 04:25:00.000,n,262,5.76,5.76,5.76,20.3,82.4,1004.62,0,0,0,0,0.027008
2022/03/07 04:26:00.005,n,264,4.68,4.32,5.04,20.3,82.4,1004.62,0,0,0,0,0.024376
2022/03/07 04:27:00.010,n,266,5.4,5.4,6.12,20.3,82.4,1004.62,0,0,0,0,0.024376
2022/03/07 04:28:00.001,n,270,4.68,2.88,5.4,20.3,82.5,1004.62,0,0,0,0,0.028725
2022/03/07 04:29:00.007,n,283,5.04,4.68,5.4,20.3,82.5,1004.62,0,0,0,0,0.028725
2022/03/07 04:30:00.012,n,273,4.32,3.96,4.68,20.3,82.5,1004.72,0,0,0,0,0.024376
2022/03/07 04:31:00.001,n,262,5.76,4.32,6.84,20.2,82.5,1004.72,0,0,0,0,0.024376
2022/03/07 04:32:00.001,n,264,5.4,5.04,5.76,20.2,82.5,1004.72,0,0,0,0,0.024376
2022/03/07 04:33:00.000,n,269,6.12,5.76,6.48,20.2,82.5,1004.72,0,0,0,0,0.021782
2022/03/07 04:34:00.000,n,262,4.68,4.32,5.76,20.2,82.5,1004.82,0,0,0,0,0.024376
2022/03/07 04:35:00.000,n,279,4.68,3.6,5.4,20.2,82.4,1004.82,0,0,0,0,0.023499
2022/03/07 04:36:00.010,n,251,2.88,1.44,3.24,20.2,82.5,1004.82,0,0,0,0,0.024376
2022/03/07 04:37:00.009,n,272,3.6,3.24,3.96,20.2,82.5,1004.82,0,0,0,0,0.023499
2022/03/07 04:38:00.006,n,235,3.96,3.6,4.68,20.2,82.6,1004.82,0,0,0,0,0.023499
2022/03/07 04:39:00.005,n,255,5.04,4.32,5.76,20.1,82.6,1004.82,0,0,0,0,0.020866
2022/03/07 04:40:00.000,n,267,5.4,5.04,5.76,20.1,82.4,1004.82,0,0,0,0,0.021782
2022/03/07 04:41:00.001,n,265,5.4,5.04,5.76,20.1,82.4,1004.92,0,0,0,0,0.020866
2022/03/07 04:42:00.000,n,281,5.4,5.04,5.4,20.1,82.5,1004.92,0,0,0,0,0.020027
2022/03/07 04:43:00.001,n,263,5.76,5.04,6.48,20,82.5,1004.92,0,0,0,0,0.021782
2022/03/07 04:44:00.000,n,262,6.12,5.76,6.48,20,82.6,1004.92,0,0,0,0,0.020027
2022/03/07 04:45:00.000,n,267,5.4,5.04,5.76,20,82.5,1004.92,0,0,0,0,0.020866
2022/03/07 04:46:00.012,n,262,5.76,5.76,6.48,20,82.5,1004.92,0,0,0,0,0.017433
2022/03/07 04:47:00.009,n,261,6.84,6.12,7.56,20,82.5,1004.92,0,0,0,0,0.017433
2022/03/07 04:48:00.006,n,274,5.76,4.32,6.84,20,82.3,1005.02,0,0,0,0,0.020027
2022/03/07 04:49:00.000,n,270,5.76,5.4,6.12,19.9,82.3,1005.02,0,0,0,0,0.020027
2022/03/07 04:50:00.001,n,269,5.4,4.68,5.76,19.9,82.3,1004.92,0,0,0,0,0.016556
2022/03/07 04:51:00.000,n,266,6.48,6.12,6.84,19.9,82.4,1004.92,0,0,0,0,0.018272
2022/03/07 04:52:00.000,n,268,6.48,6.12,6.84,19.9,82.3,1004.92,0,0,0,0,0.020866
2022/03/07 04:53:00.000,n,274,5.4,5.04,6.12,19.9,82.1,1004.92,0,0,0,0,0.01915
2022/03/07 04:54:00.007,n,262,6.48,6.12,6.48,19.9,81.7,1004.82,0,0,0,0,0.015678
2022/03/07 04:55:00.004,n,265,5.04,4.68,5.4,19.8,81.7,1004.82,0,0,0,0,0.027847
2022/03/07 04:56:00.000,n,260,6.12,5.76,6.48,19.8,81.5,1004.72,0,0,0,0,0.033951